When you browse on this site, cookies collect data to enhance your experience and personalize the content and advertising you see.
Visit our Privacy Policy to learn more. By continuing to use the site, you agree to this use of cookies and data.
  • In United Kingdom
  • List of Countries
  • For 7 days
  • Water Temperature
  • Weather Map
  • Weather Widgets
  • user-avatar
    Login

    Hourly Weather Newcastle upon Tyne

    Today, 4 April, Saturday

    Time Temperature Precipitation Wind Pressure Humidity
    00:00 +5°C° 0 mm 3 mps 755 mmHg 88%
    01:00 +5°C° 0 mm 3 mps 755 mmHg 89%
    02:00 +5°C° 0 mm 4 mps 755 mmHg 90%
    03:00 +5°C° 0 mm 4 mps 755 mmHg 91%
    04:00 +5°C° 0 mm 4 mps 755 mmHg 90%
    05:00 +4°C° 0 mm 4 mps 755 mmHg 90%
    06:00 +4°C° 0 mm 3 mps 755 mmHg 90%
    07:00 +5°C° 0 mm 4 mps 755 mmHg 85%
    08:00 +7°C° 0 mm 5 mps 755 mmHg 79%
    09:00 +8°C° 0 mm 5 mps 756 mmHg 74%
    10:00 +8°C° 0 mm 5 mps 756 mmHg 70%
    11:00 +9°C° 0 mm 6 mps 756 mmHg 66%
    12:00 +9°C° 0 mm 6 mps 756 mmHg 61%
    13:00 +10°C° 0 mm 5 mps 756 mmHg 61%
    14:00 +10°C° 0 mm 5 mps 755 mmHg 61%
    15:00 +10°C° 0 mm 5 mps 755 mmHg 62%
    16:00 +10°C° 0 mm 4 mps 755 mmHg 65%
    17:00 +10°C° 0 mm 4 mps 755 mmHg 68%
    18:00 +10°C° 0 mm 3 mps 755 mmHg 72%
    19:00 +8°C° 0 mm 4 mps 755 mmHg 75%
    20:00 +7°C° 0 mm 4 mps 755 mmHg 78%
    21:00 +7°C° 0 mm 5 mps 755 mmHg 81%
    22:00 +6°C° 0 mm 5 mps 755 mmHg 82%
    23:00 +6°C° 0 mm 5 mps 755 mmHg 84%

    Tomorrow, 5 April, Sunday

    Time Temperature Precipitation Wind Pressure Humidity
    00:00 +6°C° 0 mm 5 mps 755 mmHg 85%
    01:00 +5°C° 0 mm 5 mps 755 mmHg 85%
    02:00 +5°C° 0 mm 5 mps 754 mmHg 85%
    03:00 +5°C° 0 mm 5 mps 754 mmHg 85%
    04:00 +3°C° 0 mm 5 mps 753 mmHg 86%
    05:00 +3°C° 0 mm 5 mps 753 mmHg 87%
    06:00 +3°C° 0 mm 6 mps 753 mmHg 89%
    07:00 +5°C° 0 mm 6 mps 752 mmHg 84%
    08:00 +6°C° 0 mm 7 mps 752 mmHg 78%
    09:00 +9°C° 0 mm 8 mps 751 mmHg 73%
    10:00 +10°C° 0 mm 8 mps 751 mmHg 70%
    11:00 +11°C° 0 mm 8 mps 750 mmHg 67%
    12:00 +13°C° 0 mm 9 mps 750 mmHg 63%
    13:00 +15°C° 0 mm 9 mps 749 mmHg 62%
    14:00 +15°C° 0 mm 9 mps 748 mmHg 61%
    15:00 +16°C° 0 mm 9 mps 748 mmHg 60%
    16:00 +16°C° 0 mm 8 mps 747 mmHg 63%
    17:00 +15°C° 0 mm 8 mps 747 mmHg 67%
    18:00 +13°C° 0 mm 8 mps 746 mmHg 70%
    19:00 +13°C° 0 mm 8 mps 746 mmHg 72%
    20:00 +12°C° 0 mm 8 mps 746 mmHg 74%
    21:00 +11°C° 0 mm 9 mps 746 mmHg 75%
    22:00 +11°C° 0 mm 9 mps 745 mmHg 76%
    23:00 +11°C° 0 mm 9 mps 745 mmHg 76%

    Day after tomorrow, 6 April, Monday

    Time Temperature Precipitation Wind Pressure Humidity
    00:00 +11°C° 0 mm 9 mps 745 mmHg 77%
    01:00 +11°C° 0.1 mm 8 mps 745 mmHg 77%
    02:00 +10°C° 0.1 mm 8 mps 745 mmHg 77%
    03:00 +10°C° 0.1 mm 8 mps 745 mmHg 78%
    04:00 +9°C° 0 mm 7 mps 746 mmHg 79%
    05:00 +8°C° 0 mm 7 mps 747 mmHg 80%
    06:00 +8°C° 0 mm 6 mps 747 mmHg 81%
    07:00 +8°C° 0 mm 7 mps 748 mmHg 78%
    08:00 +9°C° 0 mm 7 mps 749 mmHg 76%
    09:00 +9°C° 0 mm 7 mps 750 mmHg 74%
    10:00 +10°C° 0 mm 7 mps 750 mmHg 67%
    11:00 +10°C° 0 mm 7 mps 751 mmHg 61%
    12:00 +11°C° 0 mm 7 mps 752 mmHg 54%
    13:00 +11°C° 0 mm 7 mps 753 mmHg 54%
    14:00 +11°C° 0 mm 7 mps 754 mmHg 54%
    15:00 +11°C° 0 mm 7 mps 754 mmHg 54%
    16:00 +10°C° 0 mm 6 mps 755 mmHg 59%
    17:00 +9°C° 0 mm 5 mps 756 mmHg 63%
    18:00 +8°C° 0 mm 5 mps 757 mmHg 67%
    19:00 +7°C° 0 mm 4 mps 758 mmHg 71%
    20:00 +6°C° 0 mm 4 mps 759 mmHg 76%
    21:00 +5°C° 0 mm 3 mps 760 mmHg 81%
    22:00 +5°C° 0 mm 3 mps 760 mmHg 82%
    23:00 +4°C° 0 mm 3 mps 761 mmHg 82%

    7 April, Tuesday

    Time Temperature Precipitation Wind Pressure Humidity
    00:00 +4°C° 0 mm 3 mps 761 mmHg 83%
    01:00 +4°C° 0 mm 3 mps 762 mmHg 82%
    02:00 +4°C° 0 mm 3 mps 762 mmHg 80%
    03:00 +4°C° 0 mm 3 mps 762 mmHg 79%
    04:00 +4°C° 0 mm 3 mps 763 mmHg 79%
    05:00 +4°C° 0 mm 3 mps 763 mmHg 78%
    06:00 +4°C° 0 mm 3 mps 764 mmHg 78%
    07:00 +6°C° 0 mm 4 mps 764 mmHg 74%
    08:00 +7°C° 0 mm 5 mps 764 mmHg 70%
    09:00 +9°C° 0 mm 6 mps 764 mmHg 67%
    10:00 +10°C° 0 mm 6 mps 765 mmHg 64%
    11:00 +11°C° 0 mm 6 mps 765 mmHg 60%
    12:00 +11°C° 0 mm 6 mps 765 mmHg 57%
    13:00 +12°C° 0 mm 5 mps 765 mmHg 56%
    14:00 +13°C° 0 mm 5 mps 765 mmHg 56%
    15:00 +13°C° 0 mm 5 mps 765 mmHg 55%
    16:00 +12°C° 0 mm 5 mps 765 mmHg 59%
    17:00 +11°C° 0 mm 4 mps 765 mmHg 62%
    18:00 +10°C° 0 mm 4 mps 765 mmHg 66%
    19:00 +9°C° 0 mm 3 mps 766 mmHg 69%
    20:00 +8°C° 0 mm 3 mps 766 mmHg 72%
    21:00 +7°C° 0 mm 3 mps 766 mmHg 76%
    22:00 +6°C° 0 mm 2 mps 766 mmHg 77%
    23:00 +6°C° 0 mm 2 mps 766 mmHg 78%

    8 April, Wednesday

    Time Temperature Precipitation Wind Pressure Humidity
    00:00 +6°C° 0 mm 2 mps 766 mmHg 79%
    01:00 +6°C° 0 mm 2 mps 766 mmHg 81%
    02:00 +5°C° 0 mm 2 mps 766 mmHg 82%
    03:00 +5°C° 0 mm 2 mps 766 mmHg 84%
    04:00 +5°C° 0 mm 2 mps 766 mmHg 84%
    05:00 +5°C° 0 mm 2 mps 766 mmHg 85%
    06:00 +5°C° 0 mm 2 mps 766 mmHg 86%
    07:00 +7°C° 0 mm 3 mps 765 mmHg 79%
    08:00 +9°C° 0 mm 3 mps 765 mmHg 72%
    09:00 +11°C° 0 mm 3 mps 765 mmHg 64%
    10:00 +13°C° 0 mm 3 mps 765 mmHg 59%
    11:00 +14°C° 0 mm 3 mps 765 mmHg 53%
    12:00 +16°C° 0 mm 3 mps 765 mmHg 48%
    13:00 +17°C° 0 mm 3 mps 764 mmHg 49%
    14:00 +17°C° 0 mm 3 mps 764 mmHg 49%
    15:00 +17°C° 0 mm 3 mps 764 mmHg 50%
    16:00 +17°C° 0 mm 3 mps 763 mmHg 55%
    17:00 +16°C° 0 mm 3 mps 763 mmHg 61%
    18:00 +14°C° 0 mm 3 mps 763 mmHg 67%
    19:00 +13°C° 0 mm 3 mps 763 mmHg 71%
    20:00 +11°C° 0 mm 3 mps 763 mmHg 76%
    21:00 +10°C° 0 mm 3 mps 763 mmHg 80%
    22:00 +9°C° 0 mm 3 mps 763 mmHg 82%
    23:00 +9°C° 0 mm 3 mps 763 mmHg 84%

    9 April, Thursday

    Time Temperature Precipitation Wind Pressure Humidity
    00:00 +8°C° 0 mm 2 mps 763 mmHg 85%
    01:00 +8°C° 0 mm 2 mps 762 mmHg 86%
    02:00 +8°C° 0 mm 2 mps 762 mmHg 88%
    03:00 +7°C° 0 mm 2 mps 761 mmHg 89%
    04:00 +8°C° 0 mm 2 mps 761 mmHg 90%
    05:00 +8°C° 0 mm 2 mps 761 mmHg 90%
    06:00 +8°C° 0 mm 2 mps 761 mmHg 91%
    07:00 +9°C° 0 mm 3 mps 760 mmHg 86%
    08:00 +11°C° 0 mm 3 mps 760 mmHg 81%
    09:00 +13°C° 0 mm 4 mps 760 mmHg 77%
    10:00 +14°C° 0 mm 5 mps 759 mmHg 71%
    11:00 +16°C° 0 mm 5 mps 759 mmHg 66%
    12:00 +17°C° 0 mm 6 mps 759 mmHg 61%
    13:00 +19°C° 0 mm 6 mps 758 mmHg 59%
    14:00 +19°C° 0 mm 6 mps 758 mmHg 57%
    15:00 +19°C° 0 mm 6 mps 757 mmHg 55%
    16:00 +19°C° 0 mm 6 mps 757 mmHg 60%
    17:00 +17°C° 0 mm 6 mps 757 mmHg 64%
    18:00 +16°C° 0 mm 5 mps 756 mmHg 68%
    19:00 +15°C° 0 mm 5 mps 756 mmHg 73%
    20:00 +13°C° 0 mm 4 mps 756 mmHg 79%
    21:00 +12°C° 0 mm 4 mps 756 mmHg 84%
    22:00 +12°C° 0 mm 4 mps 756 mmHg 84%
    23:00 +12°C° 0 mm 4 mps 756 mmHg 84%
    Show more